Moab, UT

7:08 PM MDT on June 27, 2017 (GMT -0600)
Canyonlands

Weather History for KCNY - June, 2013

Change the Weather History Date:

Tuesday, June 11, 2013

  Actual Average Record
Temperature  
Mean Temperature 81 °F 71 °F  
Max Temperature 95 °F 89 °F 106 °F (1953)
Min Temperature 66 °F 54 °F 43 °F (1929)
Degree Days  
Heating Degree Days 0 1  
Month to date heating degree days 0 13  
Since 1 June heating degree days 0 13  
Since 1 July heating degree days 6046 5573  
Cooling Degree Days 16 7  
Month to date cooling degree days 114 65  
Year to date cooling degree days 194 129  
Since 1 June cooling degree days 114 65  
Growing Degree Days 30 (Base 50)    
Moisture  
Dew Point 16 °F    
Average Humidity 10    
Maximum Humidity 14    
Minimum Humidity 5    
Precipitation  
Precipitation 0.00 in 0.02 in 0.60 in (1970)
Month to date precipitation 0.00 0.18  
Year to date precipitation 1.72 3.38  
Sea Level Pressure  
Sea Level Pressure 29.74 in    
Wind  
Wind Speed 12 mph (WSW)    
Max Wind Speed 26 mph    
Max Gust Speed 33 mph    
Visibility 10 miles    
Events      
T = Trace of Precipitation, MM = Missing Value Source: NWS Daily Summary

Daily Weather History Graph

Daily Weather History Graph

Search for Another Location

Airport or City:

Trip Planner

Search our weather history database for the weather conditions in past years. The results will help you decide how hot, cold, wet, or windy it might be!

Date:

Astronomy

Jun. 11, 2013 Rise Set
Actual Time 5:53 AM MDT 8:44 PM MDT
Civil Twilight 5:21 AM MDT 9:15 PM MDT
Nautical Twilight 4:41 AM MDT 9:55 PM MDT
Astronomical Twilight 3:56 AM MDT 10:41 PM MDT
Moon 8:38 AM MDT (6/11) 10:50 PM MDT (6/11)
Length of Visible Light 15h 54m
Length of Day
14h 50m
Waxing Crescent, 8% of the Moon is Illuminated
Jun 11
Waxing Crescent
Jun 16
First Quarter
Jun 23
Full
Jun 29
Last Quarter
Jul 8
New

Hourly Weather History & Observations

Time (MDT) Temp. Dew Point Humidity Pressure Visibility Wind Dir Wind Speed Gust Speed Precip Events Conditions
12:53 AM 77.0 °F 6.1 °F 7% 29.63 in 10.0 mi SSW 5.8 mph - N/A   Clear
1:53 AM 80.1 °F 1.9 °F 5% 29.63 in 10.0 mi SW 12.7 mph - N/A   Clear
2:53 AM 80.1 °F 9.0 °F 7% 29.65 in 10.0 mi SW 18.4 mph 25.3 mph N/A   Clear
3:53 AM 73.9 °F 10.9 °F 9% 29.67 in 10.0 mi SSW 6.9 mph - N/A   Clear
4:53 AM 70.0 °F 9.0 °F 9% 29.68 in 10.0 mi SW 9.2 mph - N/A   Clear
5:53 AM 68.0 °F 10.9 °F 11% 29.70 in 10.0 mi Variable 4.6 mph - N/A   Clear
6:53 AM 72.0 °F 12.9 °F 10% 29.72 in 10.0 mi SW 8.1 mph - N/A   Clear
7:53 AM 80.1 °F 16.0 °F 9% 29.72 in 10.0 mi SW 6.9 mph - N/A   Clear
8:31 AM 82.4 °F 19.4 °F 10% 29.95 in 10.0 mi WSW 15.0 mph 26.5 mph N/A   Clear
8:53 AM 82.0 °F 21.0 °F 10% 29.74 in 10.0 mi West 19.6 mph 25.3 mph N/A   Clear
9:53 AM 84.0 °F 23.0 °F 11% 29.75 in 10.0 mi WSW 16.1 mph 23.0 mph N/A   Clear
10:53 AM 86.0 °F 21.0 °F 9% 29.76 in 10.0 mi SW 16.1 mph 24.2 mph N/A   Clear
11:53 AM 88.0 °F 18.0 °F 8% 29.75 in 10.0 mi SW 18.4 mph 29.9 mph N/A   Clear
12:53 PM 89.1 °F 16.0 °F 7% 29.76 in 10.0 mi West 20.7 mph 27.6 mph N/A   Clear
1:53 PM 91.0 °F 16.0 °F 6% 29.74 in 10.0 mi SSW 19.6 mph 24.2 mph N/A   Clear
2:53 PM 91.0 °F 15.1 °F 6% 29.73 in 10.0 mi WSW 11.5 mph 26.5 mph N/A   Clear
3:53 PM 93.0 °F 16.0 °F 6% 29.73 in 10.0 mi West 17.3 mph 25.3 mph N/A   Clear
4:53 PM 93.9 °F 17.1 °F 6% 29.72 in 10.0 mi WSW 13.8 mph 28.8 mph N/A   Clear
5:10 PM 93.2 °F 17.6 °F 6% 29.93 in 10.0 mi WSW 13.8 mph 23.0 mph N/A   Clear
5:53 PM 93.0 °F 17.1 °F 6% 29.72 in 10.0 mi WSW 16.1 mph 25.3 mph N/A   Clear
6:53 PM 93.0 °F 17.1 °F 6% 29.70 in 10.0 mi West 18.4 mph - N/A   Clear
7:53 PM 90.0 °F 19.9 °F 8% 29.71 in 10.0 mi NW 13.8 mph - N/A   Clear
8:53 PM 82.9 °F 19.9 °F 10% 29.74 in 10.0 mi NW 6.9 mph - N/A   Clear
9:53 PM 75.0 °F 19.0 °F 12% 29.78 in 10.0 mi WSW 5.8 mph - N/A   Clear
10:53 PM 77.0 °F 19.0 °F 11% 29.79 in 10.0 mi West 6.9 mph - N/A   Clear
11:53 PM 72.0 °F 19.0 °F 13% 29.80 in 10.0 mi Calm Calm - N/A   Clear